Simultaneous Nadir Overpasses (SNOs) Predictions

Prediction of SNOs between FY3D and LANDSAT-8 Satellite Orbit:

Table of predicted SNOs for the next 14.0 days since TLE Epoch: 10/26/2024
Index Date (FY3D) Time (FY3D) Lat,Lon (FY3D) SZA (FY3D ) Date (LANDSAT-8) Time (LANDSAT-8) Lat,Lon (LANDSAT-8) SZA (LANDSAT-8 ) Distance(km) Time Diff (sec)
1 10/27/2024 01:40:54 74.95, 159.92 87.95 10/27/2024 01:41:42 74.95, 159.93 87.96 0.30 48
2 10/27/2024 02:31:37 -74.87, -32.52 92.12 10/27/2024 02:31:11 -74.88, -32.62 92.11 3.12 26
3 10/29/2024 17:07:27 -75.48, 106.75 90.70 10/29/2024 17:08:34 -75.38, 109.34 90.69 73.33 67
4 10/29/2024 17:58:01 74.95, -84.30 88.85 10/29/2024 17:58:08 74.94, -84.18 88.84 3.48 7
5 10/29/2024 18:48:44 -74.87, 83.26 91.22 10/29/2024 18:47:37 -74.88, 83.27 91.23 0.97 67
6 11/01/2024 09:24:22 -74.94,-135.81 90.31 11/01/2024 09:25:07 -74.97,-135.85 90.28 3.34 45
7 11/01/2024 10:15:06 74.88, 31.70 89.65 11/01/2024 10:14:34 74.89, 31.57 89.64 3.96 32
8 11/04/2024 00:50:48 75.21, 171.87 90.76 11/04/2024 00:51:59 75.13, 172.83 90.73 28.88 71
9 11/04/2024 01:41:27 -74.94, -20.00 89.48 11/04/2024 01:41:30 -74.96, -19.97 89.45 2.93 3
10 11/04/2024 02:32:10 74.82, 147.64 90.44 11/04/2024 02:30:57 74.87, 147.44 90.47 8.09 73
11 11/06/2024 17:07:49 74.99, -71.68 91.37 11/06/2024 17:08:25 74.96, -71.70 91.35 2.66 36
12 11/06/2024 17:58:32 -74.90, 95.88 88.70 11/06/2024 17:57:54 -74.90, 95.77 88.72 3.34 38



Historial Predications of SNOs between FY3D and LANDSAT-8
